This is the latest recevied weather packets stored in our database for station/object VK2XSE. If no packets are shown the sender has not sent any weather packets the latest 10 day(s).
| Time | Temp. | Humidity | Pressure | Rain* | Wind** | Luminosity | Snow |
|---|---|---|---|---|---|---|---|
| 1777212379 | 13.89° C | 64% | 1022.8 hPa | 0 mm | - | 0 W/m² | - |
| 1777211717 | 14.44° C | 65% | 1022.9 hPa | 0 mm | - | 0 W/m² | - |
| 1777211117 | 14.44° C | 59% | 1022.9 hPa | 0 mm | - | 0 W/m² | - |
| 1777210517 | 14.44° C | 62% | 1022.8 hPa | 0 mm | - | 0 W/m² | - |
| 1777209917 | 14.44° C | 60% | 1022.8 hPa | 0 mm | - | 0 W/m² | - |
| 1777209317 | 14.44° C | 63% | 1022.8 hPa | 0 mm | - | 0 W/m² | - |
| 1777208717 | 13.89° C | 59% | 1022.8 hPa | 0 mm | - | 0 W/m² | - |
| 1777208117 | 13.89° C | 64% | 1022.8 hPa | 0 mm | - | 0 W/m² | - |
| 1777207517 | 13.33° C | 62% | 1022.9 hPa | 0 mm | - | 0 W/m² | - |
| 1777206917 | 13.33° C | 64% | 1022.8 hPa | 0 mm | - | 0 W/m² | - |
| 1777206317 | 13.89° C | 66% | 1022.7 hPa | 0 mm | - | 0 W/m² | - |
| 1777205717 | 14.44° C | 62% | 1022.6 hPa | 0 mm | - | 0 W/m² | - |
| 1777205117 | 14.44° C | 62% | 1022.6 hPa | 0 mm | - | 0 W/m² | - |
| 1777204517 | 15° C | 63% | 1022.6 hPa | 0 mm | - | 0 W/m² | - |
| 1777203917 | 16.11° C | 61% | 1022.5 hPa | 0 mm | - | 0 W/m² | - |
| 1777203317 | 16.67° C | 56% | 1022.3 hPa | 0 mm | - | 0 W/m² | - |
| 1777202717 | 16.67° C | 56% | 1022.2 hPa | 0 mm | - | 0 W/m² | - |
| 1777202117 | 17.22° C | 53% | 1022.1 hPa | 0 mm | - | 0 W/m² | - |
| 1777201517 | 16.67° C | 54% | 1021.9 hPa | 0 mm | - | 0 W/m² | - |
| 1777200917 | 16.67° C | 54% | 1021.9 hPa | 0 mm | - | 0 W/m² | - |
| 1777200317 | 16.67° C | 56% | 1021.8 hPa | 0 mm | - | 0 W/m² | - |
| 1777199717 | 16.67° C | 57% | 1021.7 hPa | 0 mm | - | 0 W/m² | - |
| 1777199117 | 16.67° C | 57% | 1021.6 hPa | 0 mm | - | 0 W/m² | - |
| 1777198517 | 17.22° C | 57% | 1021.6 hPa | 0 mm | - | 0 W/m² | - |
| 1777197917 | 17.22° C | 58% | 1021.6 hPa | 0 mm | - | 0 W/m² | - |
* Rain latest hour (hover to see other rain measurements)
** Current wind speed in m/s (hover to see current wind gust speed)